[keps] orb07361.2l.amsat

Ray Hoad r.hoad at att.net
Thu Dec 27 18:18:39 PST 2007


SB KEPS @ AMSAT  $ORB07361.N
2Line Orbital Elements 07361.AMSAT

HR AMSAT ORBITAL ELEMENTS FOR AMATEUR SATELLITES IN NASA FORMAT
FROM WA5QGD FORT WORTH,TX December 27, 2007
Send Subscribe/unsubscribe to KEPS at 
http://www.amsat.org/mailman/listinfo/keps
BID: ORB07361.N

DECODE 2-LINE ELSETS WITH THE FOLLOWING KEY:
1 AAAAAU 00  0  0 BBBBB.BBBBBBBB  .CCCCCCCC  00000-0  00000-0 0  DDDZ
2 AAAAA EEE.EEEE FFF.FFFF GGGGGGG HHH.HHHH III.IIII JJ.JJJJJJJJKKKKKZ
KEY: A-CATALOGNUM B-EPOCHTIME C-DECAY D-ELSETNUM E-INCLINATION F-RAAN
G-ECCENTRICITY H-ARGPERIGEE I-MNANOM J-MNMOTION K-ORBITNUM Z-CHECKSUM

TO ALL RADIO AMATEURS BT

PO-63
1 29712U 07001D   07358.04397519  .00000745  00000-0  10536-3 0   300
2 29712 097.9014 054.3600 0013362 230.3691 129.6344 14.79954504 51418
VO-52
1 28650U 05017B   07360.82000549  .00000128  00000-0  23042-4 0 08151
2 28650 097.8125 067.0092 0026939 348.6114 011.4518 14.81400595142931
AO-40
1 26609U 00072B   07359.43536579 -.00000269  00000-0  10000-3 0 09822
2 26609 007.1982 105.2455 7929918 035.6672 356.9093 01.25583042032840
SO-33
1 25509U 98061B   07360.63011926 -.00000268  00000-0 -66869-4 0 00964
2 25509 031.4318 217.6972 0354520 309.5631 047.4176 14.28186532478786
FO-29
1 24278U 96046B   07360.85024287 -.00000071  00000-0 -33220-4 0 06799
2 24278 098.5786 294.8536 0350143 304.3726 052.4744 13.52934649560953
RS-15
1 23439U 94085A   07360.62131522 -.00000039  00000-0  10000-3 0 01006
2 23439 064.8186 055.7220 0152694 155.7020 205.1200 11.27552298535391
UO-11
1 14781U 84021B   07360.72626987  .00000343  00000-0  53063-4 0 05558
2 14781 098.1741 026.9778 0008051 272.0625 087.9657 14.79606716278208
AO-10
1 14129U 83058B   07360.87514120  .00000219  00000-0  10000-3 0 04569
2 14129 025.9518 238.8531 6043489 084.8473 337.1960 02.05867970184531
AO-07
1 07530U 74089B   07360.55490817 -.00000028  00000-0  10000-3 0 00624
2 07530 101.4909 032.7167 0011867 240.5711 119.4179 12.53573059515227
LIBERT
1 31129U 07012N   07360.65473683  .00000339  00000-0  89029-4 0 06189
2 31129 098.0631 066.2682 0103170 150.9855 209.7109 14.51988664036739
CP3
1 31128U 07012M   07360.67009361 -.00000047  00000-0  00000-0 0 02167
2 31128 098.0638 066.2595 0103414 150.8983 209.8058 14.51897780036754
CP4
1 31122U 07012F   07360.66923241  .00000551  00000-0  13192-3 0 02227
2 31122 098.0650 067.5248 0086480 147.4892 213.1663 14.55067806036847
NO-61
1 29664U 06055F   07358.13371241  .03126866  12440-4  21278-3 0  7345
2 29664 051.6139 155.9602 0003450 326.6914 033.3673 16.40530205 58605
HO-59
1 29484U 06041F   07358.06973430  .00038204  31256-5  18758-3 0  9725
2 29484 098.2591 078.7346 0149580 297.0513 061.5397 15.67836187 70653
CO-56
1 28941U 06005C   07358.08077656  .00015645  25669-5  14459-3 0  7366
2 28941 098.1108 081.1721 0197287 316.9208 041.6714 15.47579432102728
AO-51
1 28375U 04025K   07360.61677485  .00000018  00000-0  18531-4 0 09931
2 28375 098.0895 029.7863 0084162 320.0774 039.4251 14.40591920183411
CO-57
1 27848U 03031J   07360.93261380  .00000037  00000-0  37898-4 0 01546
2 27848 098.7169 005.7297 0009101 261.4394 098.5765 14.20364822232819
CO-55
1 27844U 03031E   07360.67582832  .00000072  00000-0  53857-4 0 01981
2 27844 098.7176 006.3424 0009054 256.6587 103.3574 14.20551477232805
SO-50
1 27607U 02058C   07360.88961036  .00000009  00000-0  23531-4 0 04929
2 27607 064.5570 219.9154 0075748 314.3086 045.1818 14.71314620269472
NO-44
1 26931U 01043C   07360.49364681 -.00000059  00000-0  93776-5 0 07671
2 26931 067.0519 012.1071 0004911 259.8130 100.2427 14.29506212325587
MO-46
1 26548U 00057D   07360.88864657 -.00000024  00000-0  14843-4 0 09839
2 26548 064.5585 306.4858 0008753 346.8560 013.2306 14.83212519392116
GO-32
1 25397U 98043D   07358.06118767  .00000103  00000-0  63875-4 0  4834
2 25397 098.3901 036.7100 0001931 059.5786 300.5583 14.23136412491161
PO-28
1 22829U 93061G   07360.87717398 -.00000054  00000-0 -47517-5 0 08368
2 22829 098.3424 324.7566 0010235 027.3161 332.8556 14.30175703743354
IO-26
1 22826U 93061D   07360.87567614 -.00000006  00000-0  13819-4 0 05617
2 22826 098.3526 323.6202 0009827 052.3674 307.8395 14.29473697743108
AO-27
1 22825U 93061C   07360.93159015 -.00000054  00000-0 -49535-5 0 08617
2 22825 098.3597 322.6840 0009256 055.7141 304.4947 14.29226063743024
LO-19
1 20442U 90005G   07360.90671197  .00000012  00000-0  19620-4 0 01382
2 20442 098.1876 354.0070 0011406 335.7972 024.2668 14.32019205936272
AO-16
1 20439U 90005D   07360.90046522  .00000021  00000-0  23133-4 0 02134
2 20439 098.2120 344.9974 0010761 338.3759 021.6961 14.31780022936129
NOAA-18
1 28654U 05018A   07360.55133084  .00000027  00000-0  39099-4 0 02462
2 28654 098.8512 298.7853 0015255 084.6848 275.6061 14.11121529133986
NOAA-17
1 27453U 02032A   07360.56390823  .00000265  00000-0  13404-3 0 07312
2 27453 098.5600 065.0403 0010911 252.0288 107.9711 14.23936977286090
NOAA-16
1 26536U 00055A   07360.94015329  .00000196  00000-0  13119-3 0 07364
2 26536 099.1405 341.4656 0010472 356.3573 003.7539 14.12463857374313
OKEAN-0
1 25860U 99039A   07360.54761834 -.00000011  00000-0  54540-5 0 02466
2 25860 097.7384 353.8986 0001797 089.1739 270.9674 14.73492503453829
FENGYUN1
1 25730U 99025A   07360.98312368  .00000306  00000-0  20599-3 0 03427
2 25730 098.7097 337.7462 0020535 299.9754 059.9377 14.07656659444596
RESURS
1 25394U 98043A   07360.71431392 -.00000029  00000-0  52886-5 0 08246
2 25394 098.4140 047.3551 0001908 015.8480 344.2759 14.24151325491758
NOAA-15
1 25338U 98030A   07360.88806086 -.00000008  00000-0  15043-4 0 02888
2 25338 098.5438 352.2627 0010487 182.4047 177.7074 14.24678538500122
SICH-1
1 23657U 95046A   07358.07628954  .00000150  00000-0  16034-4 0  2583
2 23657 082.5287 260.3319 0023757 343.4083 016.6318 14.81537221664140
NOAA-14
1 23455U 94089A   07360.58576056  .00000137  00000-0  96543-4 0 09483
2 23455 098.9698 067.5789 0008585 275.5422 084.4774 14.13733056669823
OKEAN-4
1 23317U 94066A   07358.10743433  .00000140  00000-0  14402-4 0  4590
2 23317 082.5385 119.3644 0021993 351.9501 008.1375 14.82562883712196
MET-2/21
1 22782U 93055A   07358.12347136  .00000048  00000-0  29710-4 0   191
2 22782 082.5478 251.2276 0024051 065.1332 295.2337 13.83622949722788
MET-3/5
1 21655U 91056A   07360.90706276  .00000051  00000-0  10000-3 0 04381
2 21655 082.5547 226.7781 0014533 085.1034 275.1748 13.17012990786774
NOAA-12
1 21263U 91032A   07360.90427609 -.00000025  00000-0  81828-5 0 04784
2 21263 098.7618 357.9153 0011542 268.5383 091.4473 14.25509068863708
NOAA-11
1 19531U 88089A   07360.83891606 -.00000141  00000-0 -50100-4 0 09739
2 19531 098.8067 087.5567 0011203 199.0181 161.0572 14.14859794993390
NOAA-10
1 16969U 86073A   07360.65846113  .00000067  00000-0  45575-4 0 09404
2 16969 098.7353 017.8605 0012062 330.6820 029.3684 14.27345887106680
CAPE1
1 31130U 07012P   07360.94252742  .00000196  00000-0  56031-4 0 01974
2 31130 098.0634 066.5240 0103528 149.9484 210.7709 14.51916273036588
MAST
1 31126U 07012K   07360.68430957 -.00000052  00000-0 -12460-5 0 02182
2 31126 098.0630 066.8667 0095579 149.1961 211.4888 14.53387390036819
FALCON
1 30776U 07006E   07360.72415758  .00000367  00000-0  29954-4 0 02128
2 30776 035.4321 125.3825 0001872 315.4872 044.5694 15.02834883044032
FCAL
1 29667U 06055J   07357.95822928  .00030581  11693-4  74889-4 0  6081
2 29667 051.6309 173.4389 0009105 017.2597 342.8716 15.97331535 58238
NCUBE2
1 28897U 05043H   07360.67240582  .00000157  00000-0  42536-4 0 04369
2 28897 098.1134 253.4950 0016455 231.3909 128.5821 14.59786380107453
CO-58
1 28895U 05043F   07360.68782746  .00000139  00000-0  38847-4 0 09085
2 28895 098.1167 253.5698 0017076 229.7414 130.2311 14.59619079115171
UWE-1
1 28892U 05043C   07360.71497986  .00000105  00000-0  31681-4 0 09335
2 28892 098.1143 253.3095 0016513 229.6188 130.3578 14.59576420115294
OO-38
1 26063U 00004C   07360.84784005 -.00000005  00000-0  18515-4 0 00949
2 26063 100.2173 038.9795 0036681 338.2918 021.6709 14.35823651414699
ISS
1 25544U 98067A   07358.19907605  .00019879  00000-0  11822-3 0  5661
2 25544 051.6388 204.1167 0001180 009.4893 097.0562 15.77988401520755
PO-34
1 25520U 98064B   07358.16520830  .00000518  00000-0  15744-4 0  8942
2 25520 028.4608 277.1540 0005735 166.7441 193.3302 15.17105020506407
UARS
1 21701U 91063B   07360.91235705  .00003370  00000-0  58545-4 0 02524
2 21701 056.9734 196.5046 0086738 201.0043 158.7439 15.49998650895612
HUBBLE
1 20580U 90037B   07358.19829455  .00000401  00000-0  18245-4 0   338
2 20580 028.4685 031.0153 0003477 308.4536 051.5739 15.00318796768521
/EX






More information about the Keps mailing list